LKW-1 (43034 NORAD) Tracking and Keplerian Element Data

This shows tracking and keplerian element data for the satellite.

Feedback or suggestion? Click here.




ElementValue
Catalog43034
NameLKW-1
Epoch Orbit44745
Epoch Day354.25572244
Epoch Year2025
RAAN32.8069
Inclination97.124
Eccentricity0.0001391
Argument of Perigee86.8007
Mean Anonmoly273.339
Mean Motion15.23163719
Decay Rate3.879E-05
L11 43034U 17077A 25354.25572244 .00003879 00000+0 16696-3 0 9993
L22 43034 97.1240 32.8069 0001391 86.8007 273.3390 15.23163719447459



Live tracking and technical data element details for LKW-1 (NORAD 43034). LKW-1 can be tracked NOW for your location showing map with azimuth and elevation plus other details from your city location.







IsCatalogInMostPopularTable: catalog: 43034, numindb: 702
Update: records affected: 1



GetName: 43034 LKW-1

Hit Count: updated at: Sat, 07 Mar 2026 06:32:50 GMT